Location: Courçay
(47.2523°N, 0.8761°E)
Time: 07:30:45
(UTC+00:00)

Cosmos 1190 Rocket - Pass Details

Date: 18 November 2025
Orbit: 752 x 775 km, 74.1° (Epoch: 06 December)

Event Time Altitude Azimuth Distance (km) Brightness Sun altitude
Rises 17:53:19 0° 194° (SSW) 3,239 7.6 -16.0°
Reaches altitude 10° 17:55:41 10° 192° (SSW) 2,317 6.8 -16.4°
Maximum altitude 18:00:56 73° 109° (ESE) 815 3.9 -17.3°
Enters shadow 18:05:25 15° 27° (NNE) 2,026 5.8 -18.1°
